Regional Weather Roundup
Issued by NWS Charleston, WV

Home | Current Version | Previous Version | Text Only | Print | Product List | Glossary Off
Versions: 1 2 3 4 5 6 7 8 9 10 11 12 13 14 15 16 17 18 19 20 21 22 23 24 25 26 27 28 29 30 31 32 33 34 35 36 37 38 39 40 41 42 43 44 45 46 47 48 49 50

000
ASUS41 KRLX 141910
RWRRLX
West Virginia Regional Weather Roundup
National Weather Service Charleston WV
300 PM EDT SUN SEP 14 2014

Note: "fair" indicates few or no clouds below 12,000 feet with no
significant weather and/or obstructions to visibility.

WVZ003-142000-
Northern Panhandle of West Virginia

CITY           SKY/WX    TMP DP  RH WIND       PRES   REMARKS
WHEELING       MOSUNNY   61  44  53 VRB3      30.26F
$$

WVZ009-142000-
Northwest West Virginia

CITY           SKY/WX    TMP DP  RH WIND       PRES   REMARKS
PARKERSBURG    MOSUNNY   64  43  46 VRB3      30.28F
$$

WVZ006-142000-
Western West Virginia

CITY           SKY/WX    TMP DP  RH WIND       PRES   REMARKS
HUNTINGTON     MOSUNNY   67  50  54 CALM      30.23F
$$

WVZ015-142000-
West Central West Virginia

CITY           SKY/WX    TMP DP  RH WIND       PRES   REMARKS
CHARLESTON     NOT AVBL
$$

WVZ031-142000-
North Central West Virginia

CITY           SKY/WX    TMP DP  RH WIND       PRES   REMARKS
CLARKSBURG     PTSUNNY   65  48  54 N3        30.25F
MORGANTOWN     PTSUNNY   64  46  52 VRB3      30.26F
$$

WVZ035-042-045-142000-
South Central West Virginia

CITY           SKY/WX    TMP DP  RH WIND       PRES   REMARKS
BECKLEY        CLOUDY    61  54  77 SE6       30.26F
BLUEFIELD      CLOUDY    62  53  72 VRB5      30.28F
LEWISBURG      CLOUDY    59  52  78 CALM      30.29S
$$

WVZ047-142000-
Northern Mountains of West Virginia

CITY           SKY/WX    TMP DP  RH WIND       PRES   REMARKS
ELKINS         PTSUNNY   64  52  64 SW7       30.26F
$$

WVZ052-142000-
Eastern Panhandle of West Virginia

CITY           SKY/WX    TMP DP  RH WIND       PRES   REMARKS
MARTINSBURG    PTSUNNY   66  43  43 NE3       30.27F
PETERSBURG     PTSUNNY   69  48  46 N3        30.25F
$$


USA.gov is the U.S. government's official web portal to all federal, state and local government web resources and services.